User: anonymous   Login
Location: ????????
(38.4362°N, 22.8767°E)
Time: 01:17:35
(UTC+00:00)
Language:

Cosmos 1633 Rocket - Orbit

View from above orbital plane
View from above orbital plane
View from above satellite
View from above satellite

Ground track
Ground track

The orbit data is extracted from the following two-line orbital elements,

1 15593U 85020B   24175.59227184  .00000571  00000-0  63229-4 0  9994
2 15593  82.5374  22.8832 0010624 202.3901 157.6853 14.85601693103506
Epoch (UTC): 23 June 2024 14:12:52
Eccentricity: 0.0010624
inclination: 82.5374°
perigee height: 604 km
apogee height: 619 km
right ascension of ascending node: 22.8832°
argument of perigee: 202.3901°
revolutions per day: 14.85601693
mean anomaly at epoch: 157.6853°
orbit number at epoch: 10350

The dashed part of the orbit path shows where the satellite is in the earth's shadow,  

DLR